Time,TemperatureF,DewpointF,PressureIn,WindDirection,WindDirectionDegrees,WindSpeedMPH,WindSpeedGustMPH,Humidity,HourlyPrecipIn,Conditions,Clouds,dailyrainin,SoftwareType,DateUTC
2013-09-09 00:00:00,59.9,58.2,29.28,WSW,256,0.0,0.0,94,0.00,,,0.01,Wunderground v.1.15,2013-09-09 04:00:00,
2013-09-09 00:10:00,60.0,58.3,29.27,WSW,257,0.0,0.0,94,0.00,,,0.00,Wunderground v.1.15,2013-09-09 04:10:00,
2013-09-09 00:20:00,60.0,58.0,29.27,WSW,257,0.0,1.0,93,0.00,,,0.00,Wunderground v.1.15,2013-09-09 04:20:00,
2013-09-09 00:30:00,60.2,57.9,29.27,South,175,0.0,0.0,92,0.00,,,0.00,Wunderground v.1.15,2013-09-09 04:30:00,
2013-09-09 00:40:00,60.5,57.6,29.27,South,173,1.0,1.0,90,0.00,,,0.00,Wunderground v.1.15,2013-09-09 04:40:00,
2013-09-09 00:50:00,60.9,56.7,29.27,South,173,1.0,1.0,86,0.00,,,0.00,Wunderground v.1.15,2013-09-09 04:50:00,
2013-09-09 01:00:00,61.5,56.6,29.27,SSE,152,1.0,2.0,84,0.00,,,0.00,Wunderground v.1.15,2013-09-09 05:00:00,
2013-09-09 01:10:00,62.0,56.8,29.26,South,180,1.0,2.0,83,0.00,,,0.00,Wunderground v.1.15,2013-09-09 05:10:00,
2013-09-09 01:20:00,62.2,56.3,29.27,South,180,1.0,1.0,81,0.00,,,0.00,Wunderground v.1.15,2013-09-09 05:20:00,
2013-09-09 01:30:00,62.3,56.4,29.26,South,178,1.0,1.0,81,0.00,,,0.00,Wunderground v.1.15,2013-09-09 05:30:00,
2013-09-09 01:40:00,62.4,56.1,29.26,South,178,2.0,2.0,80,0.00,,,0.00,Wunderground v.1.15,2013-09-09 05:40:00,
2013-09-09 01:50:00,62.5,56.2,29.26,South,178,1.0,1.0,80,0.00,,,0.00,Wunderground v.1.15,2013-09-09 05:50:00,
2013-09-09 02:00:00,62.6,56.0,29.25,SE,144,2.0,2.0,79,0.00,,,0.00,Wunderground v.1.15,2013-09-09 06:00:00,
2013-09-09 02:10:00,62.6,56.0,29.25,SSW,192,1.0,1.0,79,0.00,,,0.00,Wunderground v.1.15,2013-09-09 06:10:00,
2013-09-09 02:20:00,62.6,56.3,29.25,South,177,1.0,1.0,80,0.00,,,0.00,Wunderground v.1.15,2013-09-09 06:20:00,
2013-09-09 02:30:00,62.5,56.2,29.25,South,186,1.0,1.0,80,0.00,,,0.00,Wunderground v.1.15,2013-09-09 06:30:00,
2013-09-09 02:40:00,62.5,56.2,29.25,ESE,117,1.0,1.0,80,0.00,,,0.00,Wunderground v.1.15,2013-09-09 06:40:00,
2013-09-09 02:50:00,62.5,56.2,29.25,SSE,156,0.0,1.0,80,0.00,,,0.00,Wunderground v.1.15,2013-09-09 06:50:00,
2013-09-09 03:00:00,62.5,56.2,29.25,SW,229,1.0,1.0,80,0.00,,,0.00,Wunderground v.1.15,2013-09-09 07:00:00,
2013-09-09 03:10:00,62.5,56.2,29.24,SE,142,0.0,1.0,80,0.00,,,0.00,Wunderground v.1.15,2013-09-09 07:10:00,
2013-09-09 03:20:00,62.5,56.6,29.24,South,171,0.0,0.0,81,0.00,,,0.00,Wunderground v.1.15,2013-09-09 07:20:00,
2013-09-09 03:30:00,62.4,56.5,29.24,SSE,165,0.0,0.0,81,0.00,,,0.00,Wunderground v.1.15,2013-09-09 07:30:00,
2013-09-09 03:40:00,62.4,56.5,29.24,SSE,149,0.0,0.0,81,0.00,,,0.00,Wunderground v.1.15,2013-09-09 07:40:00,
2013-09-09 03:50:00,62.4,56.5,29.24,SE,129,0.0,0.0,81,0.00,,,0.00,Wunderground v.1.15,2013-09-09 07:50:00,
2013-09-09 04:00:00,62.4,56.8,29.24,SE,129,0.0,0.0,82,0.00,,,0.00,Wunderground v.1.15,2013-09-09 08:00:00,
2013-09-09 04:10:00,62.3,57.1,29.24,SE,129,0.0,0.0,83,0.00,,,0.00,Wunderground v.1.15,2013-09-09 08:10:00,
2013-09-09 04:20:00,62.2,57.3,29.24,SE,129,0.0,0.0,84,0.00,,,0.00,Wunderground v.1.15,2013-09-09 08:20:00,
2013-09-09 04:30:00,62.0,57.4,29.24,SE,129,0.0,0.0,85,0.00,,,0.00,Wunderground v.1.15,2013-09-09 08:30:00,
2013-09-09 04:40:00,61.8,57.2,29.24,SE,129,0.0,0.0,85,0.00,,,0.00,Wunderground v.1.15,2013-09-09 08:40:00,
2013-09-09 04:50:00,61.6,57.4,29.24,SE,129,0.0,0.0,86,0.00,,,0.00,Wunderground v.1.15,2013-09-09 08:50:00,
2013-09-09 05:00:00,61.5,57.6,29.23,SE,129,0.0,0.0,87,0.00,,,0.00,Wunderground v.1.15,2013-09-09 09:00:00,
2013-09-09 05:10:00,61.3,57.4,29.23,SE,129,0.0,0.0,87,0.00,,,0.00,Wunderground v.1.15,2013-09-09 09:10:00,
2013-09-09 05:20:00,61.2,57.6,29.22,SE,129,0.0,0.0,88,0.00,,,0.00,Wunderground v.1.15,2013-09-09 09:20:00,
2013-09-09 05:30:00,61.0,57.4,29.22,SE,129,0.0,0.0,88,0.00,,,0.00,Wunderground v.1.15,2013-09-09 09:30:00,
2013-09-09 05:40:00,60.9,57.3,29.22,SE,129,0.0,0.0,88,0.00,,,0.00,Wunderground v.1.15,2013-09-09 09:40:00,
2013-09-09 05:50:00,60.9,57.6,29.22,SE,129,0.0,0.0,89,0.00,,,0.00,Wunderground v.1.15,2013-09-09 09:50:00,
2013-09-09 06:00:00,60.8,57.5,29.22,SE,129,0.0,0.0,89,0.00,,,0.00,Wunderground v.1.15,2013-09-09 10:00:00,
2013-09-09 06:10:00,60.8,57.5,29.21,SE,129,0.0,0.0,89,0.00,,,0.00,Wunderground v.1.15,2013-09-09 10:10:00,
2013-09-09 06:20:00,60.8,57.8,29.20,SE,129,0.0,0.0,90,0.00,,,0.00,Wunderground v.1.15,2013-09-09 10:20:00,
2013-09-09 06:30:00,60.8,57.8,29.20,SE,129,0.0,0.0,90,0.00,,,0.00,Wunderground v.1.15,2013-09-09 10:30:00,
2013-09-09 06:40:00,60.7,57.7,29.20,SE,129,0.0,0.0,90,0.00,,,0.00,Wunderground v.1.15,2013-09-09 10:40:00,
2013-09-09 06:50:00,60.7,57.7,29.20,SE,129,0.0,0.0,90,0.00,,,0.00,Wunderground v.1.15,2013-09-09 10:50:00,
2013-09-09 07:00:00,60.8,58.2,29.20,SE,129,0.0,0.0,91,0.00,,,0.00,Wunderground v.1.15,2013-09-09 11:00:00,
2013-09-09 07:10:00,61.0,58.0,29.20,SE,129,0.0,1.0,90,0.00,,,0.00,Wunderground v.1.15,2013-09-09 11:10:00,
2013-09-09 07:20:00,61.2,58.2,29.20,SE,130,0.0,0.0,90,0.00,,,0.00,Wunderground v.1.15,2013-09-09 11:20:00,
2013-09-09 07:30:00,61.6,58.9,29.21,SE,129,0.0,0.0,91,0.00,,,0.00,Wunderground v.1.15,2013-09-09 11:30:00,
2013-09-09 07:40:00,61.9,58.9,29.20,SE,130,0.0,0.0,90,0.00,,,0.00,Wunderground v.1.15,2013-09-09 11:40:00,
2013-09-09 07:50:00,62.2,59.2,29.20,South,180,1.0,2.0,90,0.00,,,0.00,Wunderground v.1.15,2013-09-09 11:50:00,
2013-09-09 08:00:00,62.5,59.5,29.19,South,181,1.0,1.0,90,0.00,,,0.00,Wunderground v.1.15,2013-09-09 12:00:00,
2013-09-09 08:10:00,62.7,59.7,29.19,South,179,0.0,0.0,90,0.00,,,0.00,Wunderground v.1.15,2013-09-09 12:10:00,
2013-09-09 08:20:00,62.9,59.6,29.19,South,183,0.0,0.0,89,0.00,,,0.00,Wunderground v.1.15,2013-09-09 12:20:00,
2013-09-09 08:30:00,63.1,59.8,29.19,South,170,0.0,0.0,89,0.00,,,0.00,Wunderground v.1.15,2013-09-09 12:30:00,
2013-09-09 08:40:00,63.3,60.3,29.19,SSE,159,0.0,0.0,90,0.00,,,0.00,Wunderground v.1.15,2013-09-09 12:40:00,
2013-09-09 08:50:00,63.4,60.4,29.19,SSE,163,0.0,3.0,90,0.00,,,0.00,Wunderground v.1.15,2013-09-09 12:50:00,
2013-09-09 09:00:00,63.6,60.6,29.19,SSE,161,0.0,0.0,90,0.00,,,0.00,Wunderground v.1.15,2013-09-09 13:00:00,
2013-09-09 09:10:00,63.8,60.5,29.19,SSE,168,0.0,0.0,89,0.00,,,0.00,Wunderground v.1.15,2013-09-09 13:10:00,
2013-09-09 09:20:00,63.9,60.6,29.19,South,176,1.0,1.0,89,0.00,,,0.00,Wunderground v.1.15,2013-09-09 13:20:00,
2013-09-09 09:30:00,64.0,61.0,29.19,South,178,0.0,0.0,90,0.00,,,0.00,Wunderground v.1.15,2013-09-09 13:30:00,
2013-09-09 09:40:00,64.3,61.0,29.20,SSE,168,1.0,2.0,89,0.00,,,0.00,Wunderground v.1.15,2013-09-09 13:40:00,
2013-09-09 09:50:00,64.4,61.4,29.21,SSW,203,1.0,2.0,90,0.00,,,0.00,Wunderground v.1.15,2013-09-09 13:50:00,
2013-09-09 10:00:00,64.7,61.7,29.20,South,183,1.0,4.0,90,0.00,,,0.00,Wunderground v.1.15,2013-09-09 14:00:00,
2013-09-09 10:10:00,64.8,61.8,29.20,South,178,2.0,7.0,90,0.00,,,0.00,Wunderground v.1.15,2013-09-09 14:10:00,
2013-09-09 10:20:00,65.0,61.7,29.20,SW,218,2.0,2.0,89,0.00,,,0.00,Wunderground v.1.15,2013-09-09 14:20:00,
2013-09-09 10:30:00,65.1,61.8,29.20,South,189,0.0,0.0,89,0.00,,,0.00,Wunderground v.1.15,2013-09-09 14:30:00,
2013-09-09 10:40:00,65.3,62.0,29.20,South,177,1.0,2.0,89,0.00,,,0.00,Wunderground v.1.15,2013-09-09 14:40:00,
2013-09-09 10:50:00,65.4,62.1,29.18,SSW,195,2.0,2.0,89,0.00,,,0.00,Wunderground v.1.15,2013-09-09 14:50:00,
2013-09-09 11:00:00,65.4,62.4,29.17,South,172,2.0,2.0,90,0.00,,,0.00,Wunderground v.1.15,2013-09-09 15:00:00,
2013-09-09 11:10:00,65.3,62.3,29.18,South,178,2.0,2.0,90,0.00,,,0.00,Wunderground v.1.15,2013-09-09 15:10:00,
2013-09-09 11:20:00,65.2,62.2,29.17,SSE,150,1.0,1.0,90,0.00,,,0.00,Wunderground v.1.15,2013-09-09 15:20:00,
2013-09-09 11:30:00,65.2,62.5,29.18,SE,146,0.0,0.0,91,0.00,,,0.01,Wunderground v.1.15,2013-09-09 15:30:00,
2013-09-09 11:40:00,65.1,62.7,29.18,SSE,148,0.0,0.0,92,0.05,,,0.02,Wunderground v.1.15,2013-09-09 15:40:00,
2013-09-09 11:50:00,65.0,62.9,29.18,SE,144,0.0,0.0,93,0.04,,,0.02,Wunderground v.1.15,2013-09-09 15:50:00,
2013-09-09 12:00:00,65.1,63.0,29.18,South,172,0.0,0.0,93,0.00,,,0.02,Wunderground v.1.15,2013-09-09 16:00:00,
2013-09-09 12:10:00,65.1,63.0,29.14,SSE,150,1.0,1.0,93,0.00,,,0.02,Wunderground v.1.15,2013-09-09 16:10:00,
2013-09-09 12:20:00,65.1,63.3,29.15,South,174,0.0,0.0,94,0.00,,,0.02,Wunderground v.1.15,2013-09-09 16:20:00,
2013-09-09 12:30:00,65.2,63.4,29.15,South,182,0.0,1.0,94,0.00,,,0.02,Wunderground v.1.15,2013-09-09 16:30:00,
2013-09-09 12:40:00,65.4,63.6,29.14,South,180,0.0,0.0,94,0.00,,,0.02,Wunderground v.1.15,2013-09-09 16:40:00,
2013-09-09 12:50:00,65.5,64.0,29.09,SSE,165,0.0,0.0,95,0.00,,,0.03,Wunderground v.1.15,2013-09-09 16:50:00,
2013-09-09 13:00:00,65.3,63.8,29.03,SSW,200,1.0,2.0,95,0.00,,,0.03,Wunderground v.1.15,2013-09-09 17:00:00,
2013-09-09 13:10:00,65.1,63.6,29.03,SSE,157,2.0,2.0,95,0.00,,,0.03,Wunderground v.1.15,2013-09-09 17:10:00,
2013-09-09 13:20:00,65.2,63.7,29.05,SSE,167,3.0,3.0,95,0.00,,,0.03,Wunderground v.1.15,2013-09-09 17:20:00,
2013-09-09 13:30:00,65.4,63.9,29.05,South,180,2.0,3.0,95,0.00,,,0.03,Wunderground v.1.15,2013-09-09 17:30:00,
2013-09-09 13:40:00,65.6,64.4,29.05,SE,146,2.0,9.0,96,0.00,,,0.03,Wunderground v.1.15,2013-09-09 17:40:00,
2013-09-09 13:50:00,66.1,64.6,29.05,SE,142,2.0,2.0,95,0.00,,,0.03,Wunderground v.1.15,2013-09-09 17:50:00,
2013-09-09 14:00:00,66.8,65.6,29.05,SSE,153,1.0,1.0,96,0.00,,,0.03,Wunderground v.1.15,2013-09-09 18:00:00,
2013-09-09 14:10:00,67.4,65.9,29.05,SSE,147,1.0,1.0,95,0.00,,,0.03,Wunderground v.1.15,2013-09-09 18:10:00,
2013-09-09 14:20:00,67.6,65.8,29.06,SSE,159,3.0,3.0,94,0.00,,,0.03,Wunderground v.1.15,2013-09-09 18:20:00,
2013-09-09 14:30:00,68.0,65.9,29.06,ESE,122,2.0,2.0,93,0.00,,,0.03,Wunderground v.1.15,2013-09-09 18:30:00,
2013-09-09 14:40:00,68.5,66.1,29.08,South,181,1.0,1.0,92,0.00,,,0.03,Wunderground v.1.15,2013-09-09 18:40:00,
2013-09-09 14:50:00,69.3,66.6,29.07,SSW,200,1.0,2.0,91,0.00,,,0.03,Wunderground v.1.15,2013-09-09 18:50:00,
2013-09-09 15:00:00,70.5,67.4,29.07,SW,214,0.0,0.0,90,0.00,,,0.03,Wunderground v.1.15,2013-09-09 19:00:00,
2013-09-09 15:10:00,70.6,66.9,29.07,SW,217,0.0,0.0,88,0.00,,,0.03,Wunderground v.1.15,2013-09-09 19:10:00,
2013-09-09 15:20:00,71.3,67.2,29.08,SW,217,0.0,0.0,87,0.00,,,0.03,Wunderground v.1.15,2013-09-09 19:20:00,
2013-09-09 15:30:00,70.9,66.5,29.08,SW,217,0.0,0.0,86,0.00,,,0.03,Wunderground v.1.15,2013-09-09 19:30:00,
2013-09-09 15:40:00,70.3,66.2,29.08,SW,217,0.0,0.0,87,0.00,,,0.03,Wunderground v.1.15,2013-09-09 19:40:00,
2013-09-09 15:50:00,69.6,65.9,29.07,SW,217,0.0,0.0,88,0.00,,,0.03,Wunderground v.1.15,2013-09-09 19:50:00,
2013-09-09 16:00:00,68.9,65.2,29.07,SW,217,0.0,0.0,88,0.00,,,0.03,Wunderground v.1.15,2013-09-09 20:00:00,
2013-09-09 16:10:00,69.0,65.9,29.06,SW,217,0.0,0.0,90,0.00,,,0.03,Wunderground v.1.15,2013-09-09 20:10:00,
2013-09-09 16:20:00,69.2,65.8,29.06,SW,217,0.0,0.0,89,0.00,,,0.03,Wunderground v.1.15,2013-09-09 20:20:00,
2013-09-09 16:30:00,69.2,65.5,29.06,SW,217,0.0,0.0,88,0.00,,,0.03,Wunderground v.1.15,2013-09-09 20:30:00,
2013-09-09 16:40:00,69.2,65.8,29.05,SW,217,0.0,0.0,89,0.00,,,0.03,Wunderground v.1.15,2013-09-09 20:40:00,
2013-09-09 16:50:00,69.7,66.0,29.05,West,259,0.0,1.0,88,0.00,,,0.03,Wunderground v.1.15,2013-09-09 20:50:00,
2013-09-09 17:00:00,70.5,66.4,29.04,WNW,288,0.0,0.0,87,0.00,,,0.03,Wunderground v.1.15,2013-09-09 21:00:00,
2013-09-09 17:10:00,70.9,66.5,29.04,NW,324,1.0,1.0,86,0.00,,,0.03,Wunderground v.1.15,2013-09-09 21:10:00,
2013-09-09 17:20:00,70.8,66.4,29.03,NNW,345,1.0,1.0,86,0.00,,,0.03,Wunderground v.1.15,2013-09-09 21:20:00,
2013-09-09 17:30:00,71.3,66.2,29.03,North,360,1.0,3.0,84,0.00,,,0.03,Wunderground v.1.15,2013-09-09 21:30:00,
2013-09-09 17:40:00,71.0,66.6,29.02,NW,325,1.0,1.0,86,0.00,,,0.03,Wunderground v.1.15,2013-09-09 21:40:00,
2013-09-09 17:50:00,71.0,66.6,29.01,NNW,337,1.0,1.0,86,0.00,,,0.03,Wunderground v.1.15,2013-09-09 21:50:00,
2013-09-09 18:00:00,70.6,66.5,29.01,NNE,25,1.0,1.0,87,0.00,,,0.03,Wunderground v.1.15,2013-09-09 22:00:00,
2013-09-09 18:10:00,70.3,66.2,29.01,ENE,78,0.0,0.0,87,0.00,,,0.03,Wunderground v.1.15,2013-09-09 22:10:00,
2013-09-09 18:20:00,70.0,66.3,29.00,East,84,0.0,1.0,88,0.00,,,0.03,Wunderground v.1.15,2013-09-09 22:20:00,
2013-09-09 18:30:00,69.7,66.0,29.00,SSE,168,0.0,1.0,88,0.00,,,0.03,Wunderground v.1.15,2013-09-09 22:30:00,
2013-09-09 18:40:00,69.5,66.1,29.00,SSE,167,0.0,0.0,89,0.00,,,0.03,Wunderground v.1.15,2013-09-09 22:40:00,
2013-09-09 18:50:00,69.2,65.8,29.00,SSE,168,0.0,0.0,89,0.00,,,0.03,Wunderground v.1.15,2013-09-09 22:50:00,
2013-09-09 19:00:00,69.2,66.1,28.99,SSE,168,0.0,0.0,90,0.00,,,0.03,Wunderground v.1.15,2013-09-09 23:00:00,
2013-09-09 19:10:00,69.3,66.6,29.00,SSE,168,0.0,0.0,91,0.00,,,0.03,Wunderground v.1.15,2013-09-09 23:10:00,
2013-09-09 19:20:00,69.4,66.7,29.00,SSE,168,0.0,0.0,91,0.00,,,0.03,Wunderground v.1.15,2013-09-09 23:20:00,
2013-09-09 19:30:00,69.4,66.7,29.00,SSE,168,0.0,0.0,91,0.00,,,0.03,Wunderground v.1.15,2013-09-09 23:30:00,
2013-09-09 19:40:00,69.4,67.0,29.00,SSE,168,0.0,0.0,92,0.00,,,0.03,Wunderground v.1.15,2013-09-09 23:40:00,
2013-09-09 19:50:00,69.4,67.0,29.00,SSE,168,0.0,0.0,92,0.00,,,0.03,Wunderground v.1.15,2013-09-09 23:50:00,
2013-09-09 20:00:00,69.5,67.4,29.00,SSE,168,0.0,0.0,93,0.00,,,0.03,Wunderground v.1.15,2013-09-10 00:00:00,
2013-09-09 20:10:00,69.4,67.3,29.00,SSE,168,0.0,0.0,93,0.00,,,0.03,Wunderground v.1.15,2013-09-10 00:10:00,
2013-09-09 20:20:00,69.4,67.3,29.00,SSE,168,0.0,0.0,93,0.00,,,0.03,Wunderground v.1.15,2013-09-10 00:20:00,
2013-09-09 20:30:00,69.4,67.3,29.00,SSE,168,0.0,0.0,93,0.00,,,0.03,Wunderground v.1.15,2013-09-10 00:30:00,
2013-09-09 20:40:00,69.3,67.2,29.01,SSE,168,0.0,1.0,93,0.00,,,0.03,Wunderground v.1.15,2013-09-10 00:40:00,
2013-09-09 20:50:00,69.2,67.1,29.01,SSE,168,0.0,0.0,93,0.00,,,0.03,Wunderground v.1.15,2013-09-10 00:50:00,
2013-09-09 21:00:00,69.0,66.9,29.01,SSE,168,0.0,0.0,93,0.00,,,0.03,Wunderground v.1.15,2013-09-10 01:00:00,
2013-09-09 21:10:00,68.6,66.8,29.02,North,360,1.0,1.0,94,0.00,,,0.03,Wunderground v.1.15,2013-09-10 01:10:00,
2013-09-09 21:20:00,68.6,66.8,29.02,North,360,0.0,0.0,94,0.00,,,0.03,Wunderground v.1.15,2013-09-10 01:20:00,
2013-09-09 21:30:00,68.6,66.8,29.01,North,360,0.0,0.0,94,0.00,,,0.03,Wunderground v.1.15,2013-09-10 01:30:00,
2013-09-09 21:40:00,68.5,66.7,29.01,North,360,0.0,0.0,94,0.00,,,0.03,Wunderground v.1.15,2013-09-10 01:40:00,
2013-09-09 21:50:00,68.4,66.6,29.01,North,360,0.0,1.0,94,0.00,,,0.03,Wunderground v.1.15,2013-09-10 01:50:00,
2013-09-09 22:00:00,68.3,66.8,29.01,North,360,0.0,0.0,95,0.00,,,0.03,Wunderground v.1.15,2013-09-10 02:00:00,
2013-09-09 22:10:00,68.2,66.7,29.00,North,360,0.0,0.0,95,0.00,,,0.03,Wunderground v.1.15,2013-09-10 02:10:00,
2013-09-09 22:20:00,68.1,66.6,29.00,North,360,0.0,0.0,95,0.00,,,0.03,Wunderground v.1.15,2013-09-10 02:20:00,
2013-09-09 22:30:00,68.1,66.6,29.00,North,360,0.0,0.0,95,0.00,,,0.03,Wunderground v.1.15,2013-09-10 02:30:00,
2013-09-09 22:40:00,68.1,66.9,29.00,North,360,0.0,0.0,96,0.00,,,0.03,Wunderground v.1.15,2013-09-10 02:40:00,
2013-09-09 22:50:00,68.4,67.2,29.00,North,5,0.0,1.0,96,0.00,,,0.03,Wunderground v.1.15,2013-09-10 02:50:00,
2013-09-09 23:00:00,68.7,67.8,29.00,NNE,13,0.0,1.0,97,0.00,,,0.03,Wunderground v.1.15,2013-09-10 03:00:00,
2013-09-09 23:10:00,69.2,68.3,29.00,SSE,163,1.0,1.0,97,0.00,,,0.03,Wunderground v.1.15,2013-09-10 03:10:00,
2013-09-09 23:20:00,69.5,68.6,29.00,SSE,166,1.0,1.0,97,0.00,,,0.03,Wunderground v.1.15,2013-09-10 03:20:00,
2013-09-09 23:30:00,69.7,68.5,29.00,SSE,166,0.0,1.0,96,0.00,,,0.03,Wunderground v.1.15,2013-09-10 03:30:00,
2013-09-09 23:40:00,69.7,68.5,29.00,SSE,165,0.0,0.0,96,0.00,,,0.03,Wunderground v.1.15,2013-09-10 03:40:00,
2013-09-09 23:50:00,69.6,68.4,29.00,SSE,165,0.0,0.0,96,0.00,,,0.03,Wunderground v.1.15,2013-09-10 03:50:00,